Location: Newark
(33.9035°S, 18.4112°E)
Time: 01:57:24
(UTC+00:00)

STARLINK-1073 - Pass Details

Date: 21 January 2020
Orbit: 529 x 531 km, 53.0° (Epoch: 17 February)

Event Time Altitude Azimuth Distance (km) Brightness Sun altitude
Rises 12:51:53 0° 272° (W) 2,662 7.5 61.2°
Enters shadow 13:21:54 -48° 33° (NNE) 9,940 9.5 55.2°
Exits shadow 13:57:26 -56° 189° (S) 10,956 9.8 48.0°
